[ hide orbit diagram ]
For accurate long-term ephemerides, please instead use our Horizons system.This orbit viewer was implemented using two-body methods, and hence should not be used for determining accurate long-term trajectories (over several years or decades) or planetary encounter circumstances.
Orbital Elements at Epoch 2459000.5 (2020-May-31.0) TDB
Reference: JPL 12 (heliocentric ecliptic J2000)
Element | Value | Uncertainty (1-sigma) | Units |
e | .1805060909091521 | 5.2417e-08 | |
a | 3.11029106921428 | 2.9812e-08 | au |
q | 2.548864586720763 | 1.592e-07 | au |
i | 10.4356601454755 | 7.1831e-06 | deg |
node | 297.7614301422198 | 3.9983e-05 | deg |
peri | 151.4303195387429 | 4.8191e-05 | deg |
M | 153.9296350286215 | 2.7948e-05 | deg |
tp | 2458143.817854284644 (2018-Jan-25.31785428) | 0.00014795 | TDB |
period | 2003.549039794602 5.49 | 2.8806e-05 7.887e-08 | d yr |
n | .1796811522202153 | 2.5833e-09 | deg/d |
Q | 3.671717551707796 | 3.5193e-08 | au |
|
| | Orbit Determination Parameters
Additional Information
|
[ show covariance matrix ]
Physical Parameter Table
Parameter |
Symbol |
Value |
Units |
Sigma |
Reference |
Notes |
absolute magnitude |
H |
15.1 |
|
n/a |
MPO469556 |
|
diameter |
diameter |
7.009 |
km |
1.440 |
urn:nasa:pds:neowise_diameters_albedos::2.0[mainbelt] (http://adsabs.harvard.edu/abs/2011ApJ...741...68M) |
|
geometric albedo |
albedo |
0.047 |
|
0.022 |
urn:nasa:pds:neowise_diameters_albedos::2.0[mainbelt] (http://adsabs.harvard.edu/abs/2011ApJ...741...68M) |
|
|
146837 (2002 AN41) Discovered 2002-Jan-09 by LINEAR at Socorro |
Reference: 20070106/Numbers.arc | Last Updated: 2007-01-09 |
|
[ show close-approach data ]
|